Regional Weather Roundup
Issued by NWS

Home | Current Version | Previous Version | Text Only | Print | Product List | Glossary Off
Versions: 1 2 3 4 5 6 7 8 9 10 11 12 13 14 15 16 17 18 19 20 21 22 23 24 25 26 27 28 29 30 31 32 33 34 35 36 37 38 39 40 41 42 43 44 45 46 47 48 49 50

000
ASUS45 KCYS 061810
RWRWY

WYOMING REGIONAL WEATHER ROUNDUP
NATIONAL WEATHER SERVICE CHEYENNE WY
1200 PM MDT WED MAY 06 2015

NOTE:  "FAIR" INDICATES FEW OR NO CLOUDS BELOW 12,000 FEET
WITH NO SIGNIFICANT WEATHER AND/OR OBSTRUCTIONS TO VISIBILITY.

WYZ001-061900-
YELLOWSTONE NATIONAL PARK

CITY           SKY/WX    TMP DP  RH WIND       PRES   REMARKS
LK YELLOWSTONE   N/A     48  35  60 VRB3      29.88F
6HR MIN TEMP:  34; 6HR MAX TEMP:  48;

W YELLOWSTONE  NOT AVBL

$$
WYZ002>013-054>058-071-098>099-061900-
NORTHERN WYOMING

CITY           SKY/WX    TMP DP  RH WIND       PRES   REMARKS
JACKSON        MOSUNNY   55  39  54 CALM      29.81F
CODY           CLOUDY    46  36  66 N17       29.86S
GREYBULL       LGT RAIN  50  43  77 NW24      29.76R
6HR MIN TEMP:  50; 6HR MAX TEMP:  55; 6HR PCP:  0.03;

WORLAND        LGT RAIN  51  45  79 NW23G33   29.76S
6HR MIN TEMP:  52; 6HR MAX TEMP:  55; 6HR PCP:  0.01;

SHERIDAN       LGT RAIN  44  40  85 NW31G38   29.85R
6HR MIN TEMP:  44; 6HR MAX TEMP:  54; 6HR PCP:  0.13;

BUFFALO        CLOUDY    51  40  65 NW32G45   29.79S
6HR MIN TEMP:  49; 6HR MAX TEMP:  52;

GILLETTE       CLOUDY    50  47  89 NW22      29.73R FOG
6HR MIN TEMP:  50; 6HR MAX TEMP:  53;

HULETT         RAIN      54  52  94 CALM      29.72F
NEWCASTLE      DRIZZLE   54  52  94 CALM      29.70F

$$
WYZ014>020-022>026-101>103-061900-
CENTRAL WYOMING

CITY           SKY/WX    TMP DP  RH WIND       PRES   REMARKS
BIG PINEY      FAIR      59  26  28 N10G28    29.81F
6HR MIN TEMP:  40; 6HR MAX TEMP:  60;

PINEDALE       FAIR      57  30  35 NW18G24   29.80F
DUBOIS         FAIR      55  27  33 NW6       29.80S
LANDER         LGT RAIN  50  45  83 NE3       29.80S
6HR MIN TEMP:  49; 6HR MAX TEMP:  50; 6HR PCP:  0.06;

RIVERTON       LGT RAIN  51  47  86 N13       29.81S
6HR MIN TEMP:  49; 6HR MAX TEMP:  51; 6HR PCP:  0.19;

CASPER         CLOUDY    54  43  66 N17G24    29.76R
6HR MIN TEMP:  44; 6HR MAX TEMP:  54;

DOUGLAS        CLOUDY    53  47  79 NW14      29.73S
6HR MIN TEMP:  50; 6HR MAX TEMP:  53; 6HR PCP:  0.01;


$$
WYZ021-027>030-104>119-061900-
SOUTHERN WYOMING

CITY           SKY/WX    TMP DP  RH WIND       PRES   REMARKS
EVANSTON       FAIR      55  30  38 NW8       29.85F
6HR MIN TEMP:  42; 6HR MAX TEMP:  56;

KEMMERER       FAIR      55  30  38 NW10G16   29.84F
FORT BRIDGER   CLEAR     57  36  44 NW9       29.87F
ROCK SPRINGS   PTSUNNY   58  35  42 W17       29.80F
6HR MIN TEMP:  45; 6HR MAX TEMP:  59; 6HR PCP: TRACE;

DIXON          RAIN      51  46  82 W10       29.82F
RAWLINS        CLOUDY    52  42  69 N6        29.79F
6HR MIN TEMP:  44; 6HR MAX TEMP:  52; 6HR PCP: TRACE;

SARATOGA       MOCLDY    54  43  66 CALM      29.79F
LARAMIE        FAIR      52  41  66 N15       29.75F
6HR MIN TEMP:  42; 6HR MAX TEMP:  52;

CHEYENNE       CLOUDY    54  45  71 N16       29.71F
6HR MIN TEMP:  47; 6HR MAX TEMP:  54; 6HR PCP:  0.26;

TORRINGTON     LGT RAIN  55  51  86 N12       29.66S FOG
6HR MIN TEMP:  52; 6HR MAX TEMP:  57; 6HR PCP:  0.46;

PINE BLUFFS    CLOUDY    55  50  82 N16G23    29.69S

$$



USA.gov is the U.S. government's official web portal to all federal, state and local government web resources and services.